User: anonymous   Login
Location: Burgerwiesen
(48.6500°N, 15.6167°E)
Time: 17:39:09
(UTC+00:00)
Language:

Cosmos 864 Rocket - Orbit

View from above orbital plane
View from above orbital plane
View from above satellite
View from above satellite

Ground track
Ground track

The orbit data is extracted from the following two-line orbital elements,

1  9510U 76108B   20196.15260749  .00000015  00000-0 -49211-6 0  9999
2  9510  82.9370 269.1057 0024624 278.8644  80.9726 13.77589666196379
Epoch (UTC): 14 July 2020 03:39:45
Eccentricity: 0.0024624
inclination: 82.9370°
perigee height: 954 km
apogee height: 990 km
right ascension of ascending node: 269.1057°
argument of perigee: 278.8644°
revolutions per day: 13.77589666
mean anomaly at epoch: 80.9726°
orbit number at epoch: 19637

The dashed part of the orbit path shows where the satellite is in the earth's shadow,  

DLR